Weather observations for the past three days for
Covington Municipal Airport
Imperial (Metric)
Date Time (edt) Wind (mph) Vis. (mi.) Weather Sky Cond. Temperature (ºF) Relative Humidity Wind Chill (°F) Heat Index (°F) Pressure Precipitation (in)
Air Dwpt 6 hour altimeter (in) sea level (mb) 1 hr 3 hr 6 hr
Max. Min.
13 16:55 Calm 10.00 Overcast SCT075 BKN085 OVC110 96.8 62.6 32% 98 30.14 0.0
13 16:35 Calm 10.00 Overcast OVC075 93.2 62.6 36% 94 30.14 0.0
13 16:15 SE 3 10.00 Overcast OVC075 95 62.6 34% 96 30.15 0.0
13 15:55 Calm 10.00 Overcast OVC075 93.2 60.8 34% 93 30.15 0.0
13 15:35 NE 3 7.00 Overcast BKN075 OVC095 93.2 62.6 36% 94 30.16 0.0
13 15:15 Calm 10.00 Overcast BKN075 BKN085 OVC110 91.4 60.8 36% 91 30.16 0.0
13 14:55 NW 7 7.00 Partly Cloudy SCT075 SCT110 91.4 60.8 36% 91 30.17 0.0
13 14:35 W 5 10.00 Fair CLR 95 62.6 34% 96 30.17 0.0
13 14:15 Calm 10.00 Fair CLR 93.2 60.8 34% 93 30.18 0.0
13 13:55 Calm 10.00 Partly Cloudy SCT070 SCT110 93.2 62.6 36% 94 30.19 0.0
13 13:35 N 5 7.00 Mostly Cloudy SCT070 BKN110 91.4 64.4 41% 93 30.19 0.0
13 13:15 Calm 10.00 Partly Cloudy SCT110 89.6 64.4 43% 91 30.2 0.0
13 12:55 Calm 7.00 Partly Cloudy SCT080 89.6 62.6 41% 90 30.2 0.0
13 12:35 Calm 10.00 Partly Cloudy SCT080 89.6 62.6 41% 90 30.21 0.0
13 12:15 Calm 7.00 Fair CLR 91.4 64.4 41% 93 30.21 0.0
13 11:55 Calm 10.00 Fair CLR 89.6 62.6 41% 90 30.21 0.0
13 11:35 Calm 10.00 Fair CLR 89.6 68 49% 93 30.22 0.0
13 11:15 Calm 10.00 Fair CLR 87.8 69.8 55% 93 30.22 0.0
13 10:55 Calm 10.00 Fair CLR 87.8 69.8 55% 93 30.22 0.0
13 10:35 Calm 7.00 Fair CLR 86 69.8 59% 91 30.22 0.0
13 10:15 NE 3 10.00 Fair CLR 82.4 71.6 70% 87 30.22 0.0
13 09:55 E 6 10.00 Fair CLR 82.4 71.6 70% 87 30.22 0.0
13 09:35 E 5 10.00 Fair CLR 80.6 71.6 74% 85 30.21 0.0
13 09:15 NE 6 10.00 Fair CLR 80.6 71.6 74% 85 30.21 0.0
13 08:55 Calm 10.00 Fair CLR 78.8 71.6 79% 82 30.21 0.0
13 08:35 NE 3 10.00 Fair CLR 77 69.8 79% 79 30.2 0.0
13 08:15 NE 3 10.00 Fair CLR 73.4 69.8 89% 30.19 0.0
13 07:55 NE 3 10.00 Fair CLR 73.4 68 83% 30.19 0.0
13 07:35 NE 3 10.00 Fair CLR 71.6 68 88% 30.18 0.0
13 07:15 NE 5 10.00 Fair CLR 71.6 68 88% 30.17 0.0
13 06:55 Calm 10.00 Fair CLR 71.6 66.2 83% 30.16 0.0
13 06:35 Calm 10.00 Fair CLR 69.8 66.2 88% 30.16 0.0
13 06:15 Calm 10.00 Fair CLR 71.6 66.2 83% 30.15 0.0
13 05:55 Calm 10.00 Fair CLR 69.8 68 94% 30.14 0.0
13 05:35 Calm 10.00 Fair CLR 71.6 66.2 83% 30.14 0.0
13 05:15 Calm 10.00 Fair CLR 71.6 66.2 83% 30.14 0.0
13 04:55 NE 3 10.00 Fair CLR 71.6 68 88% 30.13 0.0
13 04:35 NE 6 10.00 Fair CLR 69.8 66.2 88% 30.12 0.0
13 04:15 Calm 10.00 Fair CLR 69.8 64.4 83% 30.12 0.0
13 03:55 Calm 10.00 Fair CLR 69.8 64.4 83% 30.12 0.0
13 03:35 Calm 10.00 Fair CLR 69.8 64.4 83% 30.12 0.0
13 03:15 Calm 10.00 Fair CLR 71.6 64.4 78% 30.12 0.0
13 02:55 Calm 10.00 Fair CLR 69.8 64.4 83% 30.12 0.0
13 02:35 Calm 10.00 Fair CLR 71.6 66.2 83% 30.12 0.0
13 02:15 Calm 10.00 Fair CLR 71.6 66.2 83% 30.13 0.0
13 01:55 Calm 10.00 Fair CLR 71.6 64.4 78% 30.13 0.0
13 01:35 Calm 10.00 Fair CLR 71.6 64.4 78% 30.14 0.0
13 01:15 Calm 10.00 Fair CLR 71.6 64.4 78% 30.14 0.0
13 00:55 Calm 10.00 Fair CLR 71.6 64.4 78% 30.14 0.0
13 00:35 Calm 10.00 Fair CLR 73.4 64.4 74% 30.14 0.0
13 00:15 Calm 10.00 Fair CLR 73.4 64.4 74% 30.13 0.0
12 23:55 Calm 10.00 Fair CLR 73.4 64.4 74% 30.13 0.0
12 23:35 Calm 10.00 Fair CLR 73.4 64.4 74% 30.13 0.0
12 23:15 Calm 10.00 Fair CLR 75.2 64.4 69% 77 30.13 0.0
12 22:55 Calm 10.00 Fair CLR 75.2 64.4 69% 77 30.12 0.0
12 22:35 Calm 10.00 Fair CLR 77 64.4 65% 79 30.12 0.0
12 22:15 Calm 10.00 Fair CLR 77 64.4 65% 79 30.12 0.0
12 21:55 Calm 10.00 Fair CLR 77 64.4 65% 79 30.11 0.0
12 21:35 Calm 10.00 Fair CLR 78.8 64.4 61% 81 30.1 0.0
12 21:15 Calm 10.00 Fair CLR 78.8 64.4 61% 81 30.1 0.0
12 20:55 Calm 10.00 Fair CLR 80.6 64.4 58% 82 30.1 0.0
12 20:35 Calm 10.00 Fair CLR 82.4 64.4 55% 84 30.09 0.0
12 20:15 Calm 10.00 Fair CLR 86 64.4 49% 87 30.09 0.0
12 19:55 Calm 10.00 Partly Cloudy SCT110 89.6 62.6 41% 90 30.09 0.0
12 19:35 N 6 10.00 Mostly Cloudy BKN110 89.6 60.8 38% 90 30.08 0.0
12 19:15 N 3 10.00 Partly Cloudy SCT110 91.4 60.8 36% 91 30.07 0.0
12 18:55 Calm 10.00 Fair CLR 91.4 59 34% 91 30.06 0.0
12 18:35 N 3 10.00 Fair CLR 91.4 59 34% 91 30.06 0.0
12 18:15 W 6 10.00 Fair CLR 91.4 60.8 36% 91 30.06 0.0
12 17:55 N 7 10.00 Fair CLR 91.4 59 34% 91 30.06 0.0
12 17:35 Calm 10.00 Fair CLR 91.4 59 34% 91 30.05 0.0
12 17:15 N 8 10.00 Fair CLR 91.4 59 34% 91 30.06 0.0
12 16:55 NE 6 7.00 Fair CLR 91.4 59 34% 91 30.06 0.0
12 16:35 W 5 7.00 Fair CLR 93.2 57.2 30% 92 30.06 0.0
12 16:15 Calm 10.00 Partly Cloudy SCT075 SCT085 91.4 59 34% 91 30.06 0.0
12 15:55 Calm 10.00 Mostly Cloudy BKN075 BKN100 91.4 59 34% 91 30.07 0.0
12 15:35 N 7 10.00 Partly Cloudy SCT075 SCT090 93.2 59 32% 93 30.07 0.0
12 15:15 Calm 10.00 Fair CLR 91.4 55.4 30% 90 30.07 0.0
12 14:55 N 5 10.00 Fair CLR 91.4 57.2 32% 90 30.07 0.0
12 14:35 Calm 10.00 Partly Cloudy SCT065 SCT085 91.4 59 34% 91 30.08 0.0
12 14:15 NW 3 10.00 Mostly Cloudy SCT060 BKN075 89.6 60.8 38% 90 30.09 0.0
12 13:55 Calm 10.00 Mostly Cloudy BKN060 BKN080 BKN085 89.6 60.8 38% 90 30.09 0.0
12 13:35 N 3 10.00 Mostly Cloudy SCT060 BKN080 BKN085 87.8 60.8 40% 88 30.1 0.0
12 13:15 Calm 10.00 Partly Cloudy SCT070 89.6 60.8 38% 90 30.11 0.0
12 12:55 Calm 7.00 Partly Cloudy SCT060 87.8 59 38% 87 30.11 0.0
12 12:35 N 7 10.00 Partly Cloudy SCT060 89.6 59 36% 89 30.11 0.0
12 12:15 NE 7 10.00 Mostly Cloudy BKN060 89.6 60.8 38% 90 30.11 0.0
12 11:55 NE 5 10.00 Mostly Cloudy BKN060 87.8 60.8 40% 88 30.11 0.0
12 11:35 Calm 10.00 Fair CLR 87.8 60.8 40% 88 30.11 0.0
12 11:15 Calm 10.00 Fair CLR 87.8 60.8 40% 88 30.11 0.0
12 10:55 Calm 10.00 Fair CLR 87.8 62.6 43% 88 30.11 0.0
12 10:35 Calm 10.00 Fair CLR 86 62.6 46% 87 30.1 0.0
12 10:15 Calm 10.00 Fair CLR 86 62.6 46% 87 30.1 0.0
12 09:55 Calm 10.00 Fair CLR 82.4 64.4 55% 84 30.09 0.0
12 09:35 Calm 7.00 Fair CLR 82.4 64.4 55% 84 30.09 0.0
12 09:15 Calm 10.00 Fair CLR 80.6 64.4 58% 82 30.09 0.0
12 08:55 Calm 10.00 Fair CLR 78.8 64.4 61% 81 30.09 0.0
12 08:35 E 3 10.00 Fair CLR 77 66.2 69% 79 30.08 0.0
12 08:15 Calm 10.00 Fair CLR 73.4 68 83% 30.08 0.0
12 07:55 Calm 10.00 Fair CLR 71.6 66.2 83% 30.07 0.0
12 07:35 Calm 10.00 Partly Cloudy SCT065 69.8 64.4 83% 30.06 0.0
12 07:15 Calm 10.00 Partly Cloudy SCT065 68 64.4 88% 30.06 0.0
12 06:55 Calm 10.00 Fair CLR 66.2 62.6 88% 30.06 0.0
12 06:35 Calm 10.00 Fair CLR 66.2 62.6 88% 30.05 0.0
12 06:15 Calm 10.00 Partly Cloudy SCT070 66.2 62.6 88% 30.06 0.0
12 05:55 Calm 10.00 Partly Cloudy SCT070 66.2 62.6 88% 30.06 0.0
12 05:35 Calm 10.00 Fair CLR 66.2 62.6 88% 30.05 0.0
12 05:15 Calm 10.00 Fair CLR 66.2 62.6 88% 30.05 0.0
12 04:55 Calm 10.00 Fair CLR 64.4 62.6 94% 30.04 0.0
12 04:35 Calm 10.00 Fair CLR 66.2 64.4 94% 30.04 0.0
12 04:15 Calm 10.00 Fair CLR 66.2 62.6 88% 30.04 0.0
Date Time (edt) Wind (mph) Vis. (mi.) Weather Sky Cond. Air Dwpt Max. Min. Relative Humidity Wind Chill (°F) Heat Index (°F) altimeter (in) sea level (mb) 1 hr 3 hr 6 hr
6 hour
Temperature (ºF) Pressure Precipitation (in)